UPMSat 2
1 46276U 20061E   25221.82464849  .00136268  00000-0  79154-3 0  9996
2 46276  97.2392 298.6316 0001270 200.4720 159.6497 15.78120630275096
SALSAT
1 46495U 20068K   25221.51736635  .00008277  00000-0  34961-3 0  9992
2 46495  97.8647 202.4076 0009614 317.6980  42.3513 15.23496191267808
TUBIN
1 48900U 21059X   25221.80238521  .00066092  00000-0  65316-3 0  9996
2 48900  97.6768  36.2481 0002487  11.2032 348.9282 15.65681265229600
LEDSAT
1 49069U 21073D   25221.76268635  .00127793  00000-0  10612-2 0  9997
2 49069  97.3843 306.2173 0008903 206.5694 153.5113 15.69736108221008
CUTE
1 49263U 21088D   25221.17952885  .00016750  00000-0  30443-3 0  9996
2 49263  97.4487 299.2901 0006840  27.8080 332.3535 15.49594158213809
TeikyoSat 4
1 49396U 21102B   25221.34233542  .00001504  00000-0  10202-3 0  9993
2 49396  97.4071 257.5733 0010847 287.5865  72.4178 15.07860342205703
Z-Sat
1 49399U 21102E   25221.86085417  .00005223  00000-0  28351-3 0  9995
2 49399  97.3761 261.5556 0016360 249.1225 110.8256 15.14849417206252
KOSEN 1
1 49402U 21102H   25221.86868404  .00008605  00000-0  38999-3 0  9991
2 49402  97.3663 265.4508 0014667 219.0982 140.9195 15.20992506206602
HO-113
1 50466U 21131B   25221.87149456  .00000528  00000-0  17862-3 0  9997
2 50466  98.5101 310.9252 0003266 325.8863  34.2115 14.40874942190279
SNUGLITE 2
1 52899U 22065F   25221.34894815  .00001009  00000-0  20464-3 0  9991
2 52899  98.1766   2.7603 0006348 285.1947  74.8552 14.63333590165377
UmKA 1 (RS40S)
1 57172U 23091G   25221.87421172  .00007070  00000-0  37101-3 0  9990
2 57172  97.5538 276.9452 0015735 120.2953 239.9839 15.15945658116762
CubeBel-2 (EU11S)
1 57175U 23091K   25221.86828177  .00011826  00000-0  54605-3 0  9990
2 57175  97.5536 278.4742 0013362 126.0457 234.2018 15.20285038116862
VERONIKA
1 58261U 23174F   25221.79882386  .01485577  14751-2  18715-2 0  9993
2 58261  97.4060 312.7707 0012132 256.7064 103.2866 16.07775396 98369
ENSO
1 58470U 23185J   25221.87214873  .00096229  00000-0  10645-2 0  9991
2 58470  97.3690 299.2273 0006805 207.0235 153.0670 15.62677834 94589
EIRSAT-1
1 58472U 23185L   25221.77095618  .00381639  00000-0  15103-2 0  9992
2 58472  97.3603 302.4789 0007617 226.1030 133.9613 15.85787227 94791
SONATE-2
1 59112U 24043Q   25221.31772821  .00019117  00000-0  52066-3 0  9995
2 59112  97.5202 353.8119 0009633 255.2383 104.7794 15.37496897 79663
MO-122
1 60209U 24125G   25221.57597851  .00023415  00000-0  62455-3 0  9990
2 60209  97.2727  72.5714 0016151 278.1111  81.8302 15.38009430 61321
GRBBeta
1 60237U 24128C   25221.48294790  .00004538  00000-0  33937-3 0  9998
2 60237  61.9890 227.1361 0055738  70.4667 290.2432 15.03061155 59354
Curium One
1 60242U 24128H   25221.47939506  .00008968  00000-0  60749-3 0  9996
2 60242  61.9788 224.5005 0055705  66.8129 293.8818 15.05846595 59402
ROBUSTA-3A
1 60243U 24128J   25221.56777458  .00006274  00000-0  43600-3 0  9998
2 60243  61.9859 225.2264 0054914  64.4527 296.2228 15.05342615 59400
CatSat
1 60246U 24125J   25221.02133156  .00019484  00000-0  62358-3 0  9998
2 60246  97.2538  70.5260 0040010 237.2633 122.4750 15.31645858 59231
HYPERVIEW-1G (RS66S)
1 61772U 24199AP  25221.89193088  .00029147  00000-0  78491-3 0  9991
2 61772  97.3442  90.6870 0011706 340.8872  19.1932 15.37735207 86370
AO-123
1 61781U 24199AY  25221.84793251  .00009301  00000-0  33104-3 0  9996
2 61781  97.3462  88.8190 0014965 347.4163  12.6702 15.29073860 86242
ZIMSAT 2
1 61783U 24199BA  25221.89821833  .00058013  00000-0  12290-2 0  9997
2 61783  97.3409  91.8468 0010288 336.3631  23.7144 15.44848177 89602
HADES-R (SO-124)
1 62690U 25009CK  25221.19940225  .00048402  00000-0  15125-2 0  9997
2 62690  97.4073 301.9175 0002969 212.3976 147.7085 15.33007224 31426
HYDRA-T
1 62692U 25009CM  25220.65081063  .00042074  00000-0  13032-2 0  9999
2 62692  97.4072 301.4296 0002916 211.4498 148.6570 15.33323268 31346
JINJUSat 1B
1 63210U 25052A   25221.44181269  .00012325  00000-0  54536-3 0  9992
2 63210  97.4337 114.8163 0006252 104.8159 255.3770 15.21796129 22505
NUSHSAT 1
1 63211U 25052B   25221.42521782  .00013823  00000-0  60476-3 0  9993
2 63211  97.4328 114.8192 0006333 108.3894 251.8032 15.22154508 22505
TEVEL2-4
1 63213U 25052D   25221.64892193  .00015646  00000-0  69099-3 0  9991
2 63213  97.4240 114.8204 0005191 118.1799 241.9961 15.21810879 22531
TEVEL2-5
1 63214U 25052E   25221.65045324  .00016213  00000-0  71653-3 0  9999
2 63214  97.4245 114.8190 0005209 118.3445 241.8317 15.21780303 22533
TEVEL2-6
1 63215U 25052F   25221.45693292  .00014054  00000-0  62253-3 0  9998
2 63215  97.4244 114.6215 0005195 119.6785 240.4968 15.21732841 22502
TEVEL2-1
1 63217U 25052H   25221.67430723  .00015458  00000-0  68885-3 0  9998
2 63217  97.4219 114.7417 0005200 128.6991 231.4711 15.21506077 22536
TEVEL2-3
1 63218U 25052J   25221.67452170  .00015396  00000-0  68602-3 0  9997
2 63218  97.4219 114.7432 0005214 129.0672 231.1029 15.21510145 22530
TEVEL2-2
1 63219U 25052K   25221.67491626  .00014708  00000-0  65576-3 0  9990
2 63219  97.4220 114.7422 0005176 128.8344 231.3354 15.21501067 22538
TEVEL2-9
1 63237U 25052AD  25221.65790757  .00014419  00000-0  66647-3 0  9994
2 63237  97.4282 114.5831 0008969 149.6389 210.5367 15.20242607 22513
TEVEL2-7
1 63238U 25052AE  25221.13633335  .00011265  00000-0  52297-3 0  9998
2 63238  97.4287 114.0615 0008993 151.4774 208.6955 15.20151008 22436
TEVEL2-8
1 63239U 25052AF  25221.66620340  .00014738  00000-0  68319-3 0  9999
2 63239  97.4284 114.5738 0009078 150.1563 210.0191 15.20136031 22519
HYDRA-W
1 63490U 25052BL  25221.52041331  .00039081  00000-0  15111-2 0  9999
2 63490  97.4231 115.1236 0012790 147.9156 212.2863 15.26039577 22543
HADES-ICM (SO-125)
1 63492U 25052BN  25221.49006729  .00036772  00000-0  14486-2 0  9997
2 63492  97.4243 115.0223 0012883 152.1411 208.0519 15.25429505 22531
